Alva, OK

1:00 PM CDT on June 26, 2017 (GMT -0500)
Alva Regional

Weather History for KAVK - October, 2012

Change the Weather History Date:

Sunday, October 28, 2012

  Actual Average Record
Temperature  
Mean Temperature 44 °F -  
Max Temperature 62 °F 67 °F 89 °F (1950)
Min Temperature 26 °F 43 °F 26 °F (2012)
Degree Days  
Heating Degree Days 21    
Moisture  
Dew Point 24 °F    
Average Humidity 48    
Maximum Humidity 75    
Minimum Humidity 24    
Precipitation  
Precipitation 0.00 in - - ()
Sea Level Pressure  
Sea Level Pressure 30.23 in    
Wind  
Wind Speed 6 mph (South)    
Max Wind Speed 17 mph    
Max Gust Speed 20 mph    
Visibility 10 miles    
Events      
Averages and records for this station are not official NWS values.
T = Trace of Precipitation, MM = Missing Value Source: NWS Daily Summary

Daily Weather History Graph

Daily Weather History Graph

Search for Another Location

Airport or City:

Trip Planner

Search our weather history database for the weather conditions in past years. The results will help you decide how hot, cold, wet, or windy it might be!

Date:

Astronomy

Oct. 28, 2012 Rise Set
Actual Time 7:54 AM CDT 6:41 PM CDT
Civil Twilight 7:28 AM CDT 7:07 PM CDT
Nautical Twilight 6:57 AM CDT 7:38 PM CDT
Astronomical Twilight 6:27 AM CDT 8:08 PM CDT
Moon 5:59 PM CDT (10/28) 6:50 AM CDT (10/28)
Length of Visible Light 11h 39m
Length of Day
10h 46m
Waxing Gibbous, 99% of the Moon is Illuminated
Oct 28
Waxing Gibbous
Oct 29
Full
Nov 6
Last Quarter
Nov 13
New
Nov 20
First Quarter

Hourly Weather History & Observations

Time (CDT) Temp. Windchill Dew Point Humidity Pressure Visibility Wind Dir Wind Speed Gust Speed Precip Events Conditions
12:00 AM 35.6 °F 31.7 °F 23.0 °F 60% 30.27 in 10.0 mi SSE 4.6 mph - N/A   Clear
12:20 AM 35.6 °F 31.7 °F 23.0 °F 60% 30.27 in 10.0 mi South 4.6 mph - N/A   Clear
12:40 AM 35.6 °F 31.7 °F 23.0 °F 60% 30.26 in 10.0 mi SSE 4.6 mph - N/A   Clear
1:00 AM 35.6 °F 32.8 °F 21.2 °F 56% 30.26 in 10.0 mi SSE 3.5 mph - N/A   Clear
1:40 AM 33.8 °F 30.8 °F 21.2 °F 60% 30.26 in 10.0 mi SW 3.5 mph - N/A   Clear
2:00 AM 33.8 °F 30.8 °F 21.2 °F 60% 30.26 in 10.0 mi SSW 3.5 mph - N/A   Clear
2:20 AM 32.0 °F 28.7 °F 19.4 °F 60% 30.26 in 10.0 mi SW 3.5 mph - N/A   Clear
2:40 AM 32.0 °F 27.5 °F 19.4 °F 60% 30.26 in 8.0 mi SW 4.6 mph - N/A   Clear
3:00 AM 32.0 °F 26.4 °F 19.4 °F 60% 30.26 in 8.0 mi WSW 5.8 mph - N/A   Clear
3:20 AM 30.2 °F 24.3 °F 19.4 °F 64% 30.26 in 9.0 mi WSW 5.8 mph - N/A   Clear
3:40 AM 32.0 °F 26.4 °F 19.4 °F 60% 30.26 in 10.0 mi WSW 5.8 mph - N/A   Clear
4:00 AM 32.0 °F 28.7 °F 19.4 °F 60% 30.26 in 10.0 mi West 3.5 mph - N/A   Clear
4:20 AM 30.2 °F 26.7 °F 23.0 °F 75% 30.26 in 9.0 mi NE 3.5 mph - N/A   Clear
4:40 AM 28.4 °F 22.2 °F 21.2 °F 74% 30.26 in 10.0 mi ENE 5.8 mph - N/A   Clear
5:00 AM 30.2 °F 26.7 °F 21.2 °F 69% 30.27 in 10.0 mi ENE 3.5 mph - N/A   Clear
5:20 AM 32.0 °F - 21.2 °F 64% 30.27 in 10.0 mi Calm Calm - N/A   Clear
5:40 AM 30.2 °F - 21.2 °F 69% 30.27 in 10.0 mi Calm Calm - N/A   Clear
6:00 AM 32.0 °F - 21.2 °F 64% 30.28 in 10.0 mi Calm Calm - N/A   Clear
6:20 AM 32.0 °F - 21.2 °F 64% 30.28 in 10.0 mi Calm Calm - N/A   Clear
6:40 AM 32.0 °F 28.7 °F 21.2 °F 64% 30.28 in 10.0 mi ENE 3.5 mph - N/A   Clear
7:00 AM 30.2 °F 25.4 °F 21.2 °F 69% 30.28 in 10.0 mi ESE 4.6 mph - N/A   Clear
7:20 AM 28.4 °F 24.6 °F 21.2 °F 74% 30.28 in 10.0 mi SE 3.5 mph - N/A   Clear
7:40 AM 28.4 °F 24.6 °F 21.2 °F 74% 30.28 in 10.0 mi SSW 3.5 mph - N/A   Clear
8:00 AM 26.6 °F 22.6 °F 19.4 °F 74% 30.29 in 7.0 mi SSW 3.5 mph - N/A   Clear
8:40 AM 32.0 °F - 24.8 °F 75% 30.29 in 8.0 mi Calm Calm - N/A   Clear
9:00 AM 35.6 °F 30.7 °F 24.8 °F 65% 30.29 in 10.0 mi South 5.8 mph - N/A   Clear
9:20 AM 37.4 °F 32.8 °F 24.8 °F 60% 30.29 in 10.0 mi South 5.8 mph - N/A   Clear
9:40 AM 39.2 °F 34.2 °F 24.8 °F 56% 30.30 in 10.0 mi South 6.9 mph - N/A   Clear
10:00 AM 41.0 °F 35.2 °F 24.8 °F 53% 30.29 in 10.0 mi South 9.2 mph - N/A   Clear
10:20 AM 44.6 °F 40.2 °F 24.8 °F 46% 30.29 in 10.0 mi South 8.1 mph - N/A   Clear
10:40 AM 46.4 °F 42.4 °F 24.8 °F 43% 30.29 in 10.0 mi SSE 8.1 mph - N/A   Clear
11:00 AM 48.2 °F - 24.8 °F 40% 30.29 in 10.0 mi SSW 11.5 mph - N/A   Clear
11:20 AM 51.8 °F - 23.0 °F 33% 30.29 in 10.0 mi SSW 10.4 mph - N/A   Clear
11:40 AM 51.8 °F - 23.0 °F 33% 30.28 in 10.0 mi South 10.4 mph - N/A   Clear
12:00 PM 53.6 °F - 23.0 °F 30% 30.26 in 10.0 mi South 10.4 mph - N/A   Clear
12:20 PM 53.6 °F - 24.8 °F 33% 30.27 in 10.0 mi SSW 11.5 mph - N/A   Clear
12:40 PM 55.4 °F - 24.8 °F 31% 30.25 in 10.0 mi SSW 8.1 mph - N/A   Clear
1:00 PM 57.2 °F - 24.8 °F 29% 30.25 in 10.0 mi South 5.8 mph - N/A   Clear
1:20 PM 57.2 °F - 24.8 °F 29% 30.24 in 10.0 mi South 9.2 mph - N/A   Clear
1:40 PM 57.2 °F - 24.8 °F 29% 30.22 in 10.0 mi SSE 8.1 mph - N/A   Clear
2:00 PM 59.0 °F - 24.8 °F 27% 30.20 in 10.0 mi SSE 9.2 mph - N/A   Clear
2:20 PM 59.0 °F - 24.8 °F 27% 30.19 in 10.0 mi South 11.5 mph - N/A   Clear
2:40 PM 59.0 °F - 24.8 °F 27% 30.19 in 10.0 mi SSE 8.1 mph - N/A   Clear
3:00 PM 60.8 °F - 24.8 °F 25% 30.18 in 10.0 mi South 10.4 mph - N/A   Clear
3:20 PM 62.6 °F - 24.8 °F 24% 30.17 in 10.0 mi SSE 11.5 mph 16.1 mph N/A   Clear
3:40 PM 62.6 °F - 24.8 °F 24% 30.17 in 10.0 mi South 9.2 mph 16.1 mph N/A   Clear
4:00 PM 62.6 °F - 24.8 °F 24% 30.16 in 10.0 mi South 9.2 mph - N/A   Clear
4:40 PM 62.6 °F - 26.6 °F 26% 30.16 in 10.0 mi SE 16.1 mph 19.6 mph N/A   Clear
5:00 PM 59.0 °F - 26.6 °F 29% 30.16 in 10.0 mi SE 15.0 mph - N/A   Clear
5:20 PM 59.0 °F - 26.6 °F 29% 30.16 in 10.0 mi SSE 13.8 mph - N/A   Clear
5:40 PM 59.0 °F - 26.6 °F 29% 30.15 in 10.0 mi SE 17.3 mph - N/A   Clear
6:00 PM 57.2 °F - 26.6 °F 31% 30.16 in 10.0 mi SE 15.0 mph - N/A   Clear
6:20 PM 55.4 °F - 26.6 °F 33% 30.15 in 10.0 mi SE 15.0 mph - N/A   Clear
6:40 PM 53.6 °F - 26.6 °F 35% 30.16 in 10.0 mi SSE 12.7 mph - N/A   Clear
7:00 PM 53.6 °F - 26.6 °F 35% 30.16 in 10.0 mi SSE 12.7 mph - N/A   Clear
7:20 PM 51.8 °F - 26.6 °F 38% 30.16 in 10.0 mi SSE 11.5 mph - N/A   Clear
7:40 PM 50.0 °F - 26.6 °F 40% 30.17 in 10.0 mi SSE 11.5 mph - N/A   Clear
8:00 PM 50.0 °F - 26.6 °F 40% 30.17 in 10.0 mi SSE 11.5 mph - N/A   Clear
8:20 PM 48.2 °F - 26.6 °F 43% 30.17 in 10.0 mi SSE 10.4 mph - N/A   Clear
8:40 PM 46.4 °F 42.4 °F 26.6 °F 46% 30.18 in 10.0 mi SSE 8.1 mph - N/A   Clear
9:00 PM 46.4 °F 41.5 °F 26.6 °F 46% 30.19 in 10.0 mi SSE 10.4 mph - N/A   Clear
9:40 PM 44.6 °F 38.8 °F 26.6 °F 49% 30.19 in 10.0 mi SSE 11.5 mph - N/A   Clear
10:00 PM 44.6 °F 39.2 °F 26.6 °F 49% 30.20 in 10.0 mi SSE 10.4 mph - N/A   Clear
10:20 PM 42.8 °F 37.0 °F 26.6 °F 53% 30.21 in 10.0 mi SSE 10.4 mph - N/A   Clear
10:40 PM 42.8 °F 37.0 °F 26.6 °F 53% 30.22 in 10.0 mi SSE 10.4 mph - N/A   Clear
11:00 PM 41.0 °F 34.7 °F 26.6 °F 57% 30.22 in 10.0 mi SSE 10.4 mph - N/A   Clear
11:40 PM 41.0 °F 34.7 °F 26.6 °F 57% 30.22 in 10.0 mi SSE 10.4 mph - N/A   Clear